Back to catalog

STARLINK-11643

AliveCommunicationsVLEO
NORAD 63192·PAYLOAD·🇺🇸 United States

Launched Mar 13, 2025 from Cape Canaveral Space Force Station

Loading…

Next Passes (next 24 hours)

TLE

FreshSource: CelesTrak SupGP

Epoch: Sep 15, 2026, 03:57 UTC

1 63192C 25048K   26258.16506944 -.00039700  00000+0 -30814-3 0  2585
2 63192  43.0005 257.8102 0001496 254.9799 356.3631 15.70874126    14

Track STARLINK-11643 in real time with AllMySat

Download on the App Store